This is the latest recevied weather packets stored in our database for station/object KL4TQ. If no packets are shown the sender has not sent any weather packets the latest 10 day(s).
| Time | Temp. | Humidity | Pressure | Rain* | Wind** | Luminosity | Snow |
|---|---|---|---|---|---|---|---|
| 1777427468 | 3.33° C | 86% | 857 hPa | 0 mm | - | 291 W/m² | - |
| 1777427169 | 3.33° C | 87% | 857 hPa | 0 mm | - | 263 W/m² | - |
| 1777426868 | 3.33° C | 87% | 857 hPa | 0 mm | - | 199 W/m² | - |
| 1777426569 | 3.33° C | 87% | 857 hPa | 0 mm | - | 193 W/m² | - |
| 1777426269 | 3.33° C | 87% | 857 hPa | 0 mm | - | 237 W/m² | - |
| 1777425968 | 3.33° C | 87% | 857 hPa | 0 mm | - | 139 W/m² | - |
| 1777425668 | 3.89° C | 86% | 857 hPa | 0 mm | - | 140 W/m² | - |
| 1777425369 | 4.44° C | 85% | 857 hPa | 0 mm | - | 168 W/m² | - |
| 1777425068 | 5° C | 81% | 857 hPa | 0 mm | - | 114 W/m² | - |
| 1777424768 | 5.56° C | 77% | 857 hPa | 0 mm | - | 129 W/m² | - |
| 1777424468 | 5.56° C | 77% | 857 hPa | 0 mm | - | 187 W/m² | - |
| 1777424168 | 6.11° C | 75% | 857 hPa | 0 mm | - | 258 W/m² | - |
| 1777423869 | 6.67° C | 73% | 857 hPa | 0 mm | - | 396 W/m² | - |
| 1777423568 | 7.22° C | 70% | 857 hPa | 0 mm | - | 385 W/m² | - |
| 1777423269 | 7.78° C | 68% | 857 hPa | 0 mm | - | 470 W/m² | - |
| 1777422968 | 8.33° C | 63% | 857 hPa | 0 mm | - | 311 W/m² | - |
| 1777422669 | 8.89° C | 54% | 857 hPa | 0 mm | - | 335 W/m² | - |
| 1777422369 | 9.44° C | 54% | 858 hPa | 0 mm | - | 726 W/m² | - |
| 1777422069 | 9.44° C | 54% | 857 hPa | 0 mm | - | 480 W/m² | - |
| 1777421769 | 8.89° C | 53% | 857 hPa | 0 mm | - | 318 W/m² | - |
| 1777421469 | 8.89° C | 53% | 857 hPa | 0 mm | - | 388 W/m² | - |
| 1777421169 | 8.89° C | 53% | 857 hPa | 0 mm | - | 471 W/m² | - |
| 1777420870 | 9.44° C | 52% | 857 hPa | 0 mm | - | 470 W/m² | - |
| 1777420570 | 9.44° C | 51% | 858 hPa | 0 mm | - | 607 W/m² | - |
| 1777420269 | 9.44° C | 51% | 857 hPa | 0 mm | - | 429 W/m² | - |
* Rain latest hour (hover to see other rain measurements)
** Current wind speed in m/s (hover to see current wind gust speed)